Location: Unspecified
(0.0000°N, 0.0000°E)
Time: 13:41:49
(UTC+00:00)

LightSail 2 - Pass Details

Date: 03 April 2020
Orbit: 693 x 726 km, 24.0° (Epoch: 02 April)

Event Time Altitude Azimuth Distance (km) Brightness Sun altitude
Exits shadow 04:15:29 17° 356° (N) 1,690 7.1 -26.8°
Drops below altitude 10° 04:17:47 10° 22° (NNE) 2,130 7.9 -26.2°
Sets 04:20:51 0° 41° (NE) 3,049 9.1 -25.5°
